Regional Weather Roundup
Issued by NWS Northern Indiana

Home | Current Version | Previous Version | Graphics & Text | Print | Product List | Glossary On
Versions: 1 2 3 4 5 6 7 8 9 10 11 12 13 14 15 16 17 18 19 20 21 22 23 24 25 26 27 28 29 30 31 32 33 34 35 36 37 38 39 40 41 42 43 44 45 46 47 48 49 50
000
ASUS43 KIWX 221310
RWRIWX

KIWX WEATHER ROUNDUP
NATIONAL WEATHER SERVICE NORTHERN INDIANA
800 AM EST WED FEB 22 2017

NOTE: "FAIR" INDICATES FEW OR NO CLOUDS BELOW 12,000 FEET WITH NO
SIGNIFICANT WEATHER AND/OR OBSTRUCTIONS TO VISIBILITY.

* THESE STATIONS ARE NOT UNDER NWS QUALITY CONTROL. THEY ALSO MAY NOT
  REPORT WEATHER SUCH AS PRECIPITATION OR FOG.

INZ001>027-221400-
NORTHERN INDIANA

CITY           SKY/WX    TMP DP  RH WIND       PRES   REMARKS
GARY*          CLOUDY    55  52  88 S8        29.84F FOG
VALPARAISO     CLOUDY    52  51  97 S8        29.84F FOG
MICHIGAN CITY* CLOUDY    52  52 100 SW6       29.85S
LAPORTE*       FAIR      48  47  98 CALM      29.85F FOG
KNOX*          CLOUDY    52  41  66 SW6       29.85S
SOUTH BEND     MOCLDY    47  47 100 S6        29.85F FOG
ELKHART*       FOG       46  46 100 CALM      29.85F VSB 1/4
GOSHEN         FAIR      50  48  93 S7        29.86F FOG
MONTICELLO*    CLOUDY    52  51  95 S5        29.86F FOG
LOGANSPORT*    FOG       50  50 100 S6        29.88F VSB 3/4
ROCHESTER*       N/A     54  54 100 S3        29.87S FOG
WARSAW*        CLOUDY    52  52 100 CALM      29.87S FOG
ANGOLA*        CLOUDY    52  52 100 CALM      29.87S
FORT WAYNE     FOG       53  51  93 S7        29.90R VSB 1
HUNTINGTON*    FOG       51  50  96 CALM      29.89S VSB 1
PERU/GRISSOM   FOG       51  51 100 S5        29.87S VSB 1/8
MARION*        CLOUDY    52  52 100 S7        29.90S FOG

$$
INZ028>050-221400-
CENTRAL INDIANA

CITY           SKY/WX    TMP DP  RH WIND       PRES   REMARKS
LAFAYETTE      FOG       47  47 100 CALM      29.87F VSB<1/4
KOKOMO*        FOG       52  52 100 S7        29.90R VSB 1/2
MUNCIE*        CLOUDY    57  54  89 S5        29.90S
INDIANAPOLIS   MOCLDY    54  52  93 S5        29.89S FOG

$$
MIZ043>046-050>051-056>058-064>065-071>073-077>080-221400-
SOUTHWEST LOWER MICHIGAN

CITY           SKY/WX    TMP DP  RH WIND       PRES   REMARKS
BATTLE CREEK   CLOUDY    50  49  96 SW8       29.85S FOG
BENTON HARBOR  CLOUDY    53  50  89 S7        29.83F FOG
COLDWATER*     CLOUDY    51  51 100 SW6       29.86S FOG
HILLSDALE*     FOG       46  46 100 S5        29.86S VSB 1/4
HOLLAND        FOG       50  49  96 S7        29.81F VSB 1
GRAND RAPIDS   CLOUDY    49  47  93 S6        29.81S FOG
KALAMAZOO      CLOUDY    50  47  89 S7        29.85F FOG
STURGIS*       CLOUDY    49  49  99 SW5       29.85F FOG
THREE RIVERS*  CLOUDY    47  47 100 S5        29.85F FOG

$$
OHZ001>008-015>018-024>025-221400-
NORTHWEST OHIO

CITY           SKY/WX    TMP DP  RH WIND       PRES   REMARKS
WAUSEON*       CLOUDY    52  52 100 SW5       29.88S FOG
DEFIANCE       CLOUDY    51  49  92 SW3       29.89S FOG
FINDLAY        CLOUDY    54  50  86 S9        29.90S FOG
TOLEDO EXPRESS CLOUDY    53  53 100 SW5       29.88F FOG
TOLEDO METCALF FAIR      53  52  96 SW9       29.89F FOG
LIMA           CLOUDY    54  54 100 S8        29.91S FOG

$$
AND FOR LAKE MICHIGAN COASTAL AND OPEN LAKE BUOY OBSERVATIONS

STATION/POSITION TEMP    WIND        PRES    VSBY  WAVE
                 AIR SEA DIR/SP/G                  HT/PER
                 (F)     (DEG/KT/KT) (MB)    (MI)  (FT/S)
CALUMET HARBOR    53     200/  8/ 10 1009.2F
MICHIGAN CITY     53     170/  7/  9   N/A
BURNS HARBOR      53     180/  9/ 12 1010.8F

$$
&&




USA.gov is the U.S. government's official web portal to all federal, state and local government web resources and services.